Tracking 30923 objects as of 1-Jul-2025
HD Live streaming from Space Station
objects crossing your sky now

OPS 4682 DEB

Track OPS 4682 DEB now!
10-day predictions


NORAD ID: 38380
Int'l Code: 1965-027CH
Perigee: 1,254.1 km
Apogee: 1,288.1 km
Inclination: 90.3 °
Period: 110.8 minutes
Semi major axis: 7642 km
RCS: 0.0076 m2 (small)
Launch date: April 3, 1965
Source: United States (US)
Launch site: AIR FORCE WESTERN TEST RANGE (AFWTR)

Note: This is SATELLITE DEBRIS
Your satellite tracking list
FREGAT DEB
Track 1 satellite(s)




NASA's NSSDC Master Catalog

Two Line Element Set (TLE):
1 38380U 65027CH  25181.10827510 -.00001332  00000-0 -44805-2 0  9997
2 38380  90.2753 312.6770 0022246 171.6955 188.4539 12.99524752531885
Source of the keplerian elements: AFSPC